Location: Unspecified
(0.0000°N, 0.0000°E)
Time: 19:24:10
(UTC+00:00)

SRMSAT - Visible Passes

Search period start: 13 August 2022 00:00
Search period end: 23 August 2022 00:00
Orbit: 848 x 865 km, 20.0° (Epoch: 13 August)

Date Brightness Start Highest point End Pass type
(mag) Time Alt. Az. Time Alt. Az. Time Alt. Az.
13 Aug ? 05:05:04 10° NNW 05:08:43 16° NNE 05:12:23 10° NE visible
13 Aug ? 19:40:30 10° WSW 19:46:24 65° SSE 19:47:00 61° SE visible
14 Aug ? 04:51:44 10° NNW 04:55:43 18° NNE 04:59:40 10° ENE visible
14 Aug ? 19:27:21 10° WSW 19:33:18 74° SSE 19:35:14 44° E visible
14 Aug ? 21:16:57 10° W 21:17:15 11° W 21:17:15 11° W visible
15 Aug ? 04:38:25 10° NNW 04:42:41 20° NNE 04:46:57 10° ENE visible
15 Aug ? 19:14:15 10° WSW 19:20:12 84° SSE 19:23:28 28° ENE visible
15 Aug ? 21:04:03 10° W 21:05:29 17° WNW 21:05:29 17° WNW visible
16 Aug ? 04:25:18 11° NNW 04:29:39 22° NNE 04:34:12 10° ENE visible
16 Aug ? 19:01:09 10° WSW 19:07:06 85° NNW 19:11:42 18° ENE visible
16 Aug ? 20:51:09 10° W 20:53:44 22° WNW 20:53:44 22° WNW visible
17 Aug ? 04:13:26 16° NNW 04:16:36 25° NNE 04:21:24 10° ENE visible
17 Aug ? 18:48:04 10° WSW 18:54:00 75° NNW 18:59:55 10° ENE visible
17 Aug ? 20:38:17 10° WNW 20:41:57 26° NW 20:41:57 26° NW visible
18 Aug ? 04:01:37 23° NNW 04:03:34 27° NNE 04:08:34 10° ENE visible
18 Aug ? 18:35:02 10° WSW 18:40:54 65° NNW 18:46:48 10° ENE visible
18 Aug ? 20:25:28 10° WNW 20:30:08 25° NNW 20:30:08 25° NNW visible
19 Aug ? 03:49:51 30° N 03:50:30 31° NNE 03:55:43 10° E visible
19 Aug ? 05:33:47 10° WNW 05:39:48 82° NNE 05:45:48 10° ESE visible
19 Aug ? 18:22:01 10° W 18:27:49 57° NNW 18:33:38 10° ENE visible
19 Aug ? 20:12:40 10° WNW 20:17:14 23° NNW 20:18:14 22° N visible
20 Aug ? 03:38:06 34° NNE 03:38:06 34° NNE 03:42:49 10° E visible
20 Aug ? 05:20:41 10° WNW 05:26:42 88° SSW 05:32:43 10° ESE visible
20 Aug ? 19:59:54 10° WNW 20:04:11 20° NNW 20:06:18 17° NNE visible
21 Aug ? 03:26:21 30° ENE 03:26:21 30° ENE 03:29:55 10° E visible
21 Aug ? 05:08:23 14° WNW 05:13:36 77° SSW 05:19:36 10° ESE visible
21 Aug ? 19:47:10 10° WNW 19:51:10 18° NNW 19:54:17 13° NNE visible
22 Aug ? 03:14:36 23° E 03:14:36 23° E 03:16:57 10° E visible
22 Aug ? 04:56:37 23° W 05:00:29 68° SSW 05:06:28 10° ESE visible
22 Aug ? 19:34:28 10° NW 19:38:10 17° NNW 19:41:51 10° NNE visible
